Location: Carrières
(48.9495°N, 2.0407°E)
Time: 23:55:54
(UTC+00:00)

Cosmos 2360 Rocket - Pass Details

Date: 28 January 2023
Orbit: 832 x 846 km, 71.0° (Epoch: 01 April)

Event Time Altitude Azimuth Distance (km) Brightness Sun altitude
Rises 19:36:36 0° 193° (SSW) 3,371 5.4 -28.5°
Reaches altitude 10° 19:39:03 10° 190° (S) 2,443 4.6 -28.9°
Enters shadow 19:40:20 17° 186° (S) 1,973 4.1 -29.1°
